#timestamp,LO_Frequency,Hit 
1498622415.8,286044221.5,N
1498622435.7,286044221.4,N
1498622455.5,286044221.7,N
1498622475.4,286044223.2,N
1498622495.2,286044220.8,N
1498622515.0,286044223.5,N
1498622515.9,286044223.5,N
1498622535.8,286044220.4,N
1498622555.6,286044222.8,N
1498622575.4,286044224.9,N
1498622595.3,286044222.7,N
1498622615.1,286044222.0,N
1498622635.9,286044225.1,N
1498622655.7,286044223.6,N
1498622675.5,286044222.0,N
1498622695.4,286044222.8,N
1498622715.2,286044223.2,N
1498622735.1,286044223.5,N
1498622736.0,286044223.5,N
1498622755.8,286044220.7,N
1498622775.6,286044220.8,N
1498622795.5,286044222.6,N
1498622815.3,286044226.3,N
1498622835.1,286044224.7,N
1498622855.9,286044224.1,N
1498622875.7,286044223.8,N
1498622895.6,286044225.0,N
1498622915.4,286044223.5,N
1498622935.2,286044222.5,N
1498622955.1,286044224.9,N
1498622956.0,286044224.9,N
1498622975.8,286044223.1,N
1498622995.7,286044223.4,N
1498623015.5,286044223.1,N
1498623035.3,286044224.9,N
1498623055.2,286044222.0,N
1498623075.0,286044224.6,N
1498623075.9,286044224.6,N
1498623095.7,286044223.3,N
1498623115.6,286044223.3,N
1498623135.4,286044222.6,N
1498623155.3,286044222.0,N
1498623175.1,286044224.3,N
1498623195.8,286044222.9,N
1498623215.7,286044224.9,N
1498623235.5,286044224.5,N
1498623255.4,286044224.4,N
1498623275.2,286044223.7,N
1498623295.0,286044223.5,N
1498623295.9,286044223.5,N
1498623315.8,286044223.2,N
1498623335.6,286044223.3,N
1498623355.4,286044223.5,N
1498623375.3,286044220.7,N
1498623395.1,286044223.5,N
1498623415.9,286044224.6,N
1498623435.7,286044225.1,N
1498623455.5,286044222.2,N
1498623475.4,286044222.1,N
1498623495.2,286044224.7,N
1498623515.1,286044225.1,N
1498623516.0,286044225.1,N
1498623535.8,286044222.7,N
1498623555.6,286044225.0,N
1498623575.5,286044224.6,N
1498623595.3,286044223.9,N
1498623615.1,286044222.5,N
1498623635.9,286044223.3,N
1498623655.7,286044222.2,N
1498623675.6,286044225.1,N
1498623695.4,286044222.6,N
1498623715.2,286044223.4,N
1498623735.1,286044220.7,N
1498623736.0,286044220.7,N
1498623755.8,286044221.2,N
1498623775.7,286044220.5,N
1498623795.5,286044218.9,N
1498623815.3,286044220.0,N
1498623835.2,286044219.4,N
1498623855.0,286044219.7,N
1498623855.9,286044219.7,N
1498623875.7,286044221.9,N
1498623895.6,286044221.1,N
1498623915.4,286044220.6,N
1498623935.3,286044223.0,N
1498623955.1,286044220.9,N
1498623956.0,286044220.9,N
1498623975.8,286044221.7,N
1498623995.7,286044219.3,N
1498624015.5,286044221.4,N
1498624035.3,286044221.7,N
1498624055.2,286044221.6,N
1498624075.0,286044222.4,N
1498624075.9,286044222.4,N
1498624095.8,286044221.6,N
1498624115.6,286044221.8,N
1498624135.4,286044219.2,N
1498624155.3,286044218.0,N
1498624175.1,286044219.8,N
1498624195.8,286044220.3,N
1498624215.7,286044217.3,N
1498624235.5,286044220.2,N
1498624255.4,286044220.0,N
1498624275.2,286044217.9,N
1498624295.0,286044220.3,N
1498624295.9,286044220.3,N
1498624315.8,286044220.1,N
1498624335.6,286044220.2,N
1498624355.4,286044218.8,N
1498624375.3,286044219.3,N
1498624395.1,286044220.0,N
1498624415.9,286044219.6,N
1498624435.7,286044217.2,N
1498624455.5,286044217.2,N
1498624475.4,286044219.6,N
1498624495.2,286044219.5,N
1498624515.0,286044218.5,N
1498624516.0,286044218.5,N
1498624535.8,286044220.2,N
1498624555.6,286044223.1,N
1498624575.5,286044221.2,N
1498624595.3,286044221.7,N
1498624615.1,286044221.4,N
1498624635.9,286044219.4,N
1498624655.7,286044219.9,N
1498624675.6,286044219.3,N
1498624695.4,286044219.6,N
1498624715.2,286044217.8,N
1498624735.1,286044218.3,N
1498624736.0,286044218.3,N
1498624755.8,286044216.4,N
1498624775.6,286044217.4,N
1498624795.5,286044217.9,N
1498624815.3,286044216.2,N
1498624835.2,286044218.6,N
1498624855.9,286044216.9,N
1498624875.7,286044215.9,N
1498624895.6,286044216.3,N
1498624915.4,286044216.2,N
1498624935.2,286044216.8,N
1498624955.1,286044216.9,N
1498624956.0,286044216.9,N
1498624975.8,286044215.7,N
1498624995.7,286044217.2,N
1498625015.5,286044220.3,N
1498625035.3,286044220.2,N
1498625055.2,286044220.3,N
1498625075.0,286044219.9,N
1498625075.9,286044219.9,N
1498625095.7,286044220.2,N
1498625115.6,286044220.1,N
1498625135.4,286044217.2,N
1498625155.3,286044219.5,N
1498625175.1,286044219.8,N
1498625176.0,286044219.8,N
1498625195.8,286044217.8,N
1498625215.7,286044218.4,N
1498625235.5,286044218.3,N
1498625255.3,286044217.5,N
1498625275.2,286044218.3,N
1498625295.0,286044215.7,N
1498625295.9,286044215.7,N
1498625315.8,286044216.5,N
1498625335.6,286044216.4,N
1498625355.4,286044215.9,N
1498625375.3,286044218.7,N
1498625395.1,286044217.6,N
1498625415.8,286044217.5,N
1498625435.7,286044216.1,N
1498625455.5,286044221.4,N
1498625475.4,286044216.7,N
1498625495.2,286044214.4,N
1498625515.0,286044216.3,N
1498625515.9,286044216.3,N
1498625535.8,286044215.8,N
1498625555.6,286044216.8,N
1498625575.4,286044215.1,N
1498625595.3,286044216.0,N
1498625615.1,286044215.8,N
1498625635.9,286044217.1,N
1498625655.7,286044216.8,N
1498625675.5,286044218.2,N
1498625695.4,286044216.5,N
1498625715.2,286044217.0,N
1498625735.0,286044214.5,N
1498625735.9,286044214.5,N
1498625755.8,286044216.2,N
1498625775.6,286044214.3,N
1498625795.5,286044215.5,N
1498625815.3,286044214.3,N
1498625835.1,286044214.4,N
1498625855.9,286044214.2,N
1498625875.7,286044215.3,N
1498625895.5,286044215.3,N
1498625915.4,286044215.3,N
1498625935.2,286044214.6,N
1498625955.1,286044214.3,N
1498625956.0,286044214.3,N
1498625975.8,286044214.8,N
1498625995.6,286044221.4,N
